THORAD AGENA D DEB, 42514

Orbit data source: Space-Track

THORAD AGENA D DEB, 42514 is space debris in SSO originally from a launch on Wed, 08 Apr 1970 UTC launched from the Air Force Western Test Range (AFWTR). Debris objects in space refer to the collection of defunct objects orbiting the Earth. Examples of debris include non-operational satellites, rocket bodies, and fragments generated from explosions, collisions, or faulty payload assembly.

Loading next visibility...
Identifier
42514, 1970-025RU
Orbit
SSO
Country
Flag of USUS
Related business
Manufacturer
Unknown
Mission
Spacecraft
Bus & Motor
Unknown
Mass
Unknown
Launch date (UTC)
1970-04-08 (56 years ago)
Launch vehicle
Unknown
Launch site
Air Force Western Test Range (AFWTR)
Object type
Payload
Rocket body
Debris
Shape & HBR
Unknown shape, 0.1 m
Radar Cross Section
Small (<0.1 m²)

Expand to show TLE details & history
Last TLE update: 1 week ago

TLE from 1 week ago
0 THORAD AGENA D DEB
1 42514U 70025RU  25292.82778684  .00000487  00000-0  11359-2 0  9990
2 42514  99.3692  74.7297 0185588 167.1891 193.4039 13.23151859574812
Epoch: 2025-10-19T19:52Z
TLE epoch observation values (Epoch: 2025-10-19T19:52:00.782Z)
Latitude
-0.00001°
Longitude
108.18758°
Altitude
1,311.944 km
Speed
7.136 km/s
True Right ascension
04h 58m 55s
True Declination
0° 00' 00"
Sunlit
Object was in full shadow at epoch
Visualization orbit readout
Latitude
Unknown
Longitude
Unknown
Altitude
Unknown
Speed
Unknown
Apparent Right ascension
Unknown
Apparent Declination
Unknown
Sunlit
N/A
Visualization observer readout
Local Sidereal Time
05:21:25
Azimuth
Unknown
Elevation
Unknown
Doppler factor
Unknown
Orbital elements
Apogee altitude
1,310.109 km
Perigee altitude
1,029.94 km
Semi-major axis
7,548.161 km
Eccentricity
0.01856
Inclination
99.3692°
RAAN
74.7297°
Arg. of periapsis
167.1891°
True anomaly
192.9218°
Mean anomaly
193.4039°
Eccentric anomaly
193.16178°
Mean motion
3.30964 °/min
Orbital period
108.77 mins
BSTAR
0.0011359
Loading maneuver chart data...
Computing Atmospheric mass density...

Documentation

Showing up to 5 results
|